Weather History for NW Arkansas Airport, AR

Change the Weather History Date:

Thursday, March 21, 2013

  Actual Average Record
Temperature  
Mean Temperature 36 °F -  
Max Temperature 41 °F - - ()
Min Temperature 30 °F - - ()
Degree Days  
Heating Degree Days 30    
Moisture  
Dew Point 26 °F    
Average Humidity 77    
Maximum Humidity 100    
Minimum Humidity 31    
Precipitation  
Precipitation 0.19 in - - ()
Sea Level Pressure  
Sea Level Pressure 29.91 in    
Wind  
Wind Speed 9 mph (East)    
Max Wind Speed 17 mph    
Max Gust Speed 24 mph    
Visibility 7 miles    
Events Rain , Snow    
T = Trace of Precipitation, MM = Missing Value Source: NWS Daily Summary

Daily Weather History Graph

Daily Weather History Graph

Search for Another Location

Airport:

Trip Planner

Search our weather history database for the weather conditions in past years. The results will help you decide how hot, cold, wet, or windy it might be!

Date:

Astronomy

Mar. 21, 2013 Rise Set
Actual Time 7:18 AM CDT 7:30 PM CDT
Civil Twilight 6:53 AM CDT 7:55 PM CDT
Nautical Twilight 6:23 AM CDT 8:25 PM CDT
Astronomical Twilight 5:52 AM CDT 8:56 PM CDT
Moon 2:08 PM CDT (3/21) 3:32 AM CDT (3/21)
Length of Visible Light 13h 02m
Length of Day
12h 11m
Waxing Gibbous, 69% of the Moon is Illuminated
Mar 21
Waxing Gibbous
Mar 27
Full
Apr 2
Last Quarter
Apr 10
New
Apr 18
First Quarter

Hourly Weather History & Observations

Time (CDT) Temp. Windchill Dew Point Humidity Pressure Visibility Wind Dir Wind Speed Gust Speed Precip Events Conditions
1:53 AM 32.0 °F - 21.0 °F 64% 30.07 in 10.0 mi Calm Calm - N/A   Clear
2:53 AM 30.9 °F 25.2 °F 21.0 °F 67% 30.06 in 10.0 mi East 5.8 mph - N/A   Clear
3:53 AM 30.9 °F 24.3 °F 19.0 °F 61% 30.03 in 10.0 mi East 6.9 mph - N/A   Mostly Cloudy
4:53 AM 32.0 °F 24.8 °F 18.0 °F 56% 30.02 in 10.0 mi East 8.1 mph - N/A   Overcast
5:53 AM 32.0 °F 24.8 °F 18.0 °F 56% 30.01 in 10.0 mi East 8.1 mph - N/A   Overcast
6:53 AM 33.1 °F 24.4 °F 16.0 °F 50% 30.01 in 10.0 mi East 11.5 mph - N/A   Overcast
7:53 AM 33.1 °F 24.9 °F 12.9 °F 43% 30.01 in 10.0 mi East 10.4 mph - N/A   Overcast
8:53 AM 35.1 °F 27.4 °F 12.9 °F 40% 30.01 in 10.0 mi East 10.4 mph - N/A   Overcast
9:53 AM 37.0 °F 28.1 °F 10.9 °F 34% 29.99 in 10.0 mi East 15.0 mph - N/A   Overcast
10:53 AM 39.0 °F 31.4 °F 12.0 °F 33% 29.97 in 10.0 mi East 12.7 mph - N/A   Overcast
11:53 AM 41.0 °F 35.2 °F 12.0 °F 31% 29.96 in 10.0 mi SE 9.2 mph - N/A   Overcast
12:53 PM 37.9 °F 29.6 °F 27.0 °F 65% 29.94 in 5.0 mi ESE 13.8 mph - 0.01 in Snow Light Snow
1:09 PM 37.4 °F 29.8 °F 28.4 °F 70% 29.91 in 3.0 mi ESE 11.5 mph 24.2 mph 0.00 in Snow Light Snow
1:36 PM 35.6 °F 25.5 °F 30.2 °F 81% 29.90 in 1.5 mi SE 17.3 mph 23.0 mph 0.00 in Snow Light Snow
1:43 PM 33.8 °F 23.9 °F 30.2 °F 87% 29.90 in 0.8 mi ESE 15.0 mph 23.0 mph 0.00 in Snow Light Snow
1:53 PM 33.1 °F 23.9 °F 32.0 °F 96% 29.92 in 1.0 mi ESE 12.7 mph 20.7 mph 0.01 in Snow Light Snow
2:22 PM 33.8 °F 25.3 °F 32.0 °F 93% 29.87 in 1.0 mi ESE 11.5 mph - 0.01 in Snow Light Snow
2:35 PM 33.8 °F 25.8 °F 30.2 °F 87% 29.85 in 2.0 mi ESE 10.4 mph - 0.02 in Snow Light Snow
2:42 PM 32.0 °F 22.5 °F 30.2 °F 93% 29.84 in 1.0 mi ESE 12.7 mph - 0.02 in Snow Light Snow
2:53 PM 32.0 °F 22.1 °F 32.0 °F 100% 29.86 in 1.5 mi ESE 13.8 mph - 0.03 in Snow Light Snow
3:00 PM 32.0 °F 23.6 °F 32.0 °F 100% 29.83 in 3.0 mi East 10.4 mph - 0.01 in Snow Light Snow
3:30 PM 33.8 °F 23.5 °F 30.2 °F 87% 29.81 in 9.0 mi ESE 16.1 mph - 0.02 in Rain Light Rain
3:53 PM 33.1 °F 22.6 °F 32.0 °F 96% 29.83 in 4.0 mi East 16.1 mph 21.9 mph 0.03 in Rain Light Rain
4:44 PM 33.8 °F 23.9 °F 33.8 °F 100% 29.80 in 10.0 mi ESE 15.0 mph 20.7 mph 0.02 in Rain Light Rain
4:53 PM 34.0 °F 24.2 °F 33.1 °F 96% 29.82 in 10.0 mi East 15.0 mph 20.7 mph 0.02 in   Overcast
5:53 PM 34.0 °F 25.0 °F 33.1 °F 96% 29.81 in 10.0 mi East 12.7 mph - 0.00 in   Overcast
6:53 PM 34.0 °F 24.6 °F 33.1 °F 96% 29.82 in 10.0 mi East 13.8 mph - N/A   Overcast
7:53 PM 34.0 °F 25.0 °F 33.1 °F 96% 29.83 in 8.0 mi East 12.7 mph - 0.01 in Rain Light Rain
8:53 PM 34.0 °F 25.0 °F 32.0 °F 92% 29.82 in 10.0 mi East 12.7 mph - 0.02 in Rain Light Rain
9:53 PM 33.1 °F 24.4 °F 32.0 °F 96% 29.83 in 10.0 mi East 11.5 mph 21.9 mph 0.01 in Rain Light Rain
10:53 PM 33.1 °F 23.4 °F 33.1 °F 100% 29.84 in 10.0 mi East 13.8 mph - 0.00 in Rain Light Rain
11:53 PM 33.1 °F 23.4 °F 32.0 °F 96% 29.84 in 10.0 mi East 13.8 mph 19.6 mph 0.05 in   Overcast